Year,Month,Day,Hour,Minute,Value (Times are PST for temperature in C)
2015,08,25,00,00,12.60
2015,08,25,00,01,12.60
2015,08,25,00,02,12.60
2015,08,25,00,03,12.60
2015,08,25,00,04,12.60
2015,08,25,00,05,12.50
2015,08,25,00,06,12.50
2015,08,25,00,07,12.50
2015,08,25,00,08,12.40
2015,08,25,00,09,12.40
2015,08,25,00,10,12.40
2015,08,25,00,11,12.30
2015,08,25,00,12,12.30
2015,08,25,00,13,12.30
2015,08,25,00,14,12.30
2015,08,25,00,15,12.20
2015,08,25,00,16,12.20
2015,08,25,00,17,12.20
2015,08,25,00,18,12.10
2015,08,25,00,19,12.10
2015,08,25,00,20,12.00
2015,08,25,00,21,12.00
2015,08,25,00,22,12.00
2015,08,25,00,23,11.90
2015,08,25,00,24,11.90
2015,08,25,00,25,11.80
2015,08,25,00,26,11.80
2015,08,25,00,27,11.80
2015,08,25,00,28,11.70
2015,08,25,00,29,11.70
2015,08,25,00,30,11.70
2015,08,25,00,31,11.60
2015,08,25,00,32,11.60
2015,08,25,00,33,11.60
2015,08,25,00,34,11.60
2015,08,25,00,35,11.60
2015,08,25,00,36,11.60
2015,08,25,00,37,11.50
2015,08,25,00,38,11.50
2015,08,25,00,39,11.50
2015,08,25,00,40,11.50
2015,08,25,00,41,11.50
2015,08,25,00,42,11.60
2015,08,25,00,43,11.70
2015,08,25,00,44,11.80
2015,08,25,00,45,11.80
2015,08,25,00,46,11.90
2015,08,25,00,47,11.90
2015,08,25,00,48,12.00
2015,08,25,00,49,12.10
2015,08,25,00,50,12.10
2015,08,25,00,51,12.20
2015,08,25,00,52,12.20
2015,08,25,00,53,12.20
2015,08,25,00,54,12.20
2015,08,25,00,55,12.20
2015,08,25,00,56,12.20
2015,08,25,00,57,12.20
2015,08,25,00,58,12.20
2015,08,25,00,59,12.10
2015,08,25,01,00,12.10
2015,08,25,01,01,12.00
2015,08,25,01,02,12.00
2015,08,25,01,03,11.90
2015,08,25,01,04,11.90
2015,08,25,01,05,11.90
2015,08,25,01,06,11.90
2015,08,25,01,07,12.00
2015,08,25,01,08,12.00
2015,08,25,01,09,12.10
2015,08,25,01,10,12.10
2015,08,25,01,11,12.10
2015,08,25,01,12,12.10
2015,08,25,01,13,12.10
2015,08,25,01,14,12.00
2015,08,25,01,15,12.00
2015,08,25,01,16,11.90
2015,08,25,01,17,11.90
2015,08,25,01,18,11.80
2015,08,25,01,19,11.80
2015,08,25,01,20,11.70
2015,08,25,01,21,11.70
2015,08,25,01,22,11.70
2015,08,25,01,23,11.70
2015,08,25,01,24,11.60
2015,08,25,01,25,11.60
2015,08,25,01,26,11.50
2015,08,25,01,27,11.50
2015,08,25,01,28,11.40
2015,08,25,01,29,11.40
2015,08,25,01,30,11.30
2015,08,25,01,31,11.30
2015,08,25,01,32,11.20
2015,08,25,01,33,11.20
2015,08,25,01,34,11.10
2015,08,25,01,35,11.10
2015,08,25,01,36,11.10
2015,08,25,01,37,11.00
2015,08,25,01,38,11.00
2015,08,25,01,39,11.00
2015,08,25,01,40,11.00
2015,08,25,01,41,11.10
2015,08,25,01,42,11.10
2015,08,25,01,43,11.20
2015,08,25,01,44,11.20
2015,08,25,01,45,11.40
2015,08,25,01,46,11.50
2015,08,25,01,47,11.60
2015,08,25,01,48,11.70
2015,08,25,01,49,11.80
2015,08,25,01,50,11.80
2015,08,25,01,51,11.90
2015,08,25,01,52,11.80
2015,08,25,01,53,11.80
2015,08,25,01,54,11.80
2015,08,25,01,55,11.80
2015,08,25,01,56,11.70
2015,08,25,01,57,11.70
2015,08,25,01,58,11.60
2015,08,25,01,59,11.60
2015,08,25,02,00,11.50
2015,08,25,02,01,11.50
2015,08,25,02,02,11.40
2015,08,25,02,03,11.40
2015,08,25,02,04,11.30
2015,08,25,02,05,11.30
2015,08,25,02,06,11.30
2015,08,25,02,07,11.30
2015,08,25,02,08,11.30
2015,08,25,02,09,11.30
2015,08,25,02,10,11.30
2015,08,25,02,11,11.30
2015,08,25,02,12,11.30
2015,08,25,02,13,11.30
2015,08,25,02,14,11.30
2015,08,25,02,15,11.30
2015,08,25,02,16,11.30
2015,08,25,02,17,11.30
2015,08,25,02,18,11.30
2015,08,25,02,19,11.20
2015,08,25,02,20,11.20
2015,08,25,02,21,11.20
2015,08,25,02,22,11.10
2015,08,25,02,23,11.10
2015,08,25,02,24,11.10
2015,08,25,02,25,11.10
2015,08,25,02,26,11.20
2015,08,25,02,27,11.20
2015,08,25,02,28,11.20
2015,08,25,02,29,11.30
2015,08,25,02,30,11.30
2015,08,25,02,31,11.30
2015,08,25,02,32,11.30
2015,08,25,02,33,11.30
2015,08,25,02,34,11.30
2015,08,25,02,35,11.20
2015,08,25,02,36,11.20
2015,08,25,02,37,11.20
2015,08,25,02,38,11.10
2015,08,25,02,39,11.10
2015,08,25,02,40,11.10
2015,08,25,02,41,11.10
2015,08,25,02,42,11.10
2015,08,25,02,43,11.10
2015,08,25,02,44,11.10
2015,08,25,02,45,11.10
2015,08,25,02,46,11.10
2015,08,25,02,47,11.00
2015,08,25,02,48,11.00
2015,08,25,02,49,11.00
2015,08,25,02,50,10.90
2015,08,25,02,51,10.90
2015,08,25,02,52,10.90
2015,08,25,02,53,10.80
2015,08,25,02,54,10.80
2015,08,25,02,55,10.80
2015,08,25,02,56,10.80
2015,08,25,02,57,10.80
2015,08,25,02,58,10.80
2015,08,25,02,59,10.80
2015,08,25,03,00,10.80
2015,08,25,03,01,10.90
2015,08,25,03,02,10.90
2015,08,25,03,03,11.00
2015,08,25,03,04,11.00
2015,08,25,03,05,11.10
2015,08,25,03,06,11.10
2015,08,25,03,07,11.20
2015,08,25,03,08,11.20
2015,08,25,03,09,11.30
2015,08,25,03,10,11.40
2015,08,25,03,11,11.40
2015,08,25,03,12,11.40
2015,08,25,03,13,11.40
2015,08,25,03,14,11.30
2015,08,25,03,15,11.30
2015,08,25,03,16,11.30
2015,08,25,03,17,11.30
2015,08,25,03,18,11.20
2015,08,25,03,19,11.20
2015,08,25,03,20,11.10
2015,08,25,03,21,11.00
2015,08,25,03,22,10.90
2015,08,25,03,23,10.80
2015,08,25,03,24,10.70
2015,08,25,03,25,10.60
2015,08,25,03,26,10.60
2015,08,25,03,27,10.50
2015,08,25,03,28,10.50
2015,08,25,03,29,10.50
2015,08,25,03,30,10.50
2015,08,25,03,31,10.50
2015,08,25,03,32,10.60
2015,08,25,03,33,10.60
2015,08,25,03,34,10.60
2015,08,25,03,35,10.60
2015,08,25,03,36,10.60
2015,08,25,03,37,10.60
2015,08,25,03,38,10.60
2015,08,25,03,39,10.60
2015,08,25,03,40,10.70
2015,08,25,03,41,10.70
2015,08,25,03,42,10.80
2015,08,25,03,43,10.80
2015,08,25,03,44,10.80
2015,08,25,03,45,10.80
2015,08,25,03,46,10.80
2015,08,25,03,47,10.80
2015,08,25,03,48,10.80
2015,08,25,03,49,10.70
2015,08,25,03,50,10.70
2015,08,25,03,51,10.70
2015,08,25,03,52,10.70
2015,08,25,03,53,10.70
2015,08,25,03,54,10.70
2015,08,25,03,55,10.70
2015,08,25,03,56,10.80
2015,08,25,03,57,10.80
2015,08,25,03,58,10.90
2015,08,25,03,59,11.00
2015,08,25,04,00,11.20
2015,08,25,04,01,11.20
2015,08,25,04,02,11.30
2015,08,25,04,03,11.40
2015,08,25,04,04,11.40
2015,08,25,04,05,11.50
2015,08,25,04,06,11.50
2015,08,25,04,07,11.50
2015,08,25,04,08,11.50
2015,08,25,04,09,11.50
2015,08,25,04,10,11.50
2015,08,25,04,11,11.40
2015,08,25,04,12,11.40
2015,08,25,04,13,11.30
2015,08,25,04,14,11.30
2015,08,25,04,15,11.30
2015,08,25,04,16,11.20
2015,08,25,04,17,11.10
2015,08,25,04,18,11.00
2015,08,25,04,19,11.00
2015,08,25,04,20,10.90
2015,08,25,04,21,10.90
2015,08,25,04,22,10.80
2015,08,25,04,23,10.80
2015,08,25,04,24,10.80
2015,08,25,04,25,10.80
2015,08,25,04,26,10.80
2015,08,25,04,27,10.80
2015,08,25,04,28,10.80
2015,08,25,04,29,10.70
2015,08,25,04,30,10.70
2015,08,25,04,31,10.60
2015,08,25,04,32,10.60
2015,08,25,04,33,10.50
2015,08,25,04,34,10.40
2015,08,25,04,35,10.30
2015,08,25,04,36,10.30
2015,08,25,04,37,10.30
2015,08,25,04,38,10.30
2015,08,25,04,39,10.30
2015,08,25,04,40,10.30
2015,08,25,04,41,10.30
2015,08,25,04,42,10.40
2015,08,25,04,43,10.40
2015,08,25,04,44,10.40
2015,08,25,04,45,10.40
2015,08,25,04,46,10.30
2015,08,25,04,47,10.30
2015,08,25,04,48,10.30
2015,08,25,04,49,10.30
2015,08,25,04,50,10.30
2015,08,25,04,51,10.30
2015,08,25,04,52,10.30
2015,08,25,04,53,10.30
2015,08,25,04,54,10.30
2015,08,25,04,55,10.30
2015,08,25,04,56,10.30
2015,08,25,04,57,10.30
2015,08,25,04,58,10.40
2015,08,25,04,59,10.40
2015,08,25,05,00,10.40
2015,08,25,05,01,10.40
2015,08,25,05,02,10.40
2015,08,25,05,03,10.30
2015,08,25,05,04,10.30
2015,08,25,05,05,10.30
2015,08,25,05,06,10.30
2015,08,25,05,07,10.20
2015,08,25,05,08,10.20
2015,08,25,05,09,10.10
2015,08,25,05,10,10.10
2015,08,25,05,11,10.10
2015,08,25,05,12,10.10
2015,08,25,05,13,10.10
2015,08,25,05,14,10.10
2015,08,25,05,15,10.10
2015,08,25,05,16,10.00
2015,08,25,05,17,10.00
2015,08,25,05,18,10.00
2015,08,25,05,19,10.00
2015,08,25,05,20,9.90
2015,08,25,05,21,9.90
2015,08,25,05,22,10.00
2015,08,25,05,23,10.00
2015,08,25,05,24,10.00
2015,08,25,05,25,10.10
2015,08,25,05,26,10.10
2015,08,25,05,27,10.20
2015,08,25,05,28,10.30
2015,08,25,05,29,10.30
2015,08,25,05,30,10.40
2015,08,25,05,31,10.40
2015,08,25,05,32,10.50
2015,08,25,05,33,10.50
2015,08,25,05,34,10.50
2015,08,25,05,35,10.40
2015,08,25,05,36,10.40
2015,08,25,05,37,10.40
2015,08,25,05,38,10.40
2015,08,25,05,39,10.30
2015,08,25,05,40,10.20
2015,08,25,05,41,10.20
2015,08,25,05,42,10.10
2015,08,25,05,43,10.10
2015,08,25,05,44,10.00
2015,08,25,05,45,9.90
2015,08,25,05,46,9.90
2015,08,25,05,47,9.80
2015,08,25,05,48,9.80
2015,08,25,05,49,9.70
2015,08,25,05,50,9.70
2015,08,25,05,51,9.70
2015,08,25,05,52,9.60
2015,08,25,05,53,9.60
2015,08,25,05,54,9.60
2015,08,25,05,55,9.60
2015,08,25,05,56,9.60
2015,08,25,05,57,9.60
2015,08,25,05,58,9.60
2015,08,25,05,59,9.60
2015,08,25,06,00,9.60
2015,08,25,06,01,9.60
2015,08,25,06,02,9.60
2015,08,25,06,03,9.60
2015,08,25,06,04,9.60
2015,08,25,06,05,9.70
2015,08,25,06,06,9.70
2015,08,25,06,07,9.70
2015,08,25,06,08,9.70
2015,08,25,06,09,9.80
2015,08,25,06,10,9.80
2015,08,25,06,11,9.90
2015,08,25,06,12,9.90
2015,08,25,06,13,9.90
2015,08,25,06,14,10.00
2015,08,25,06,15,10.00
2015,08,25,06,16,10.00
2015,08,25,06,17,10.00
2015,08,25,06,18,10.00
2015,08,25,06,19,10.10
2015,08,25,06,20,10.10
2015,08,25,06,21,10.10
2015,08,25,06,22,10.20
2015,08,25,06,23,10.20
2015,08,25,06,24,10.30
2015,08,25,06,25,10.40
2015,08,25,06,26,10.40
2015,08,25,06,27,10.50
2015,08,25,06,28,10.50
2015,08,25,06,29,10.50
2015,08,25,06,30,10.50
2015,08,25,06,31,10.60
2015,08,25,06,32,10.60
2015,08,25,06,33,10.60
2015,08,25,06,34,10.60
2015,08,25,06,35,10.60
2015,08,25,06,36,10.60
2015,08,25,06,37,10.60
2015,08,25,06,38,10.60
2015,08,25,06,39,10.60
2015,08,25,06,40,10.60
2015,08,25,06,41,10.60
2015,08,25,06,42,10.60
2015,08,25,06,43,10.60
2015,08,25,06,44,10.50
2015,08,25,06,45,10.50
2015,08,25,06,46,10.40
2015,08,25,06,47,10.40
2015,08,25,06,48,10.40
2015,08,25,06,49,10.30
2015,08,25,06,50,10.30
2015,08,25,06,51,10.30
2015,08,25,06,52,10.30
2015,08,25,06,53,10.20
2015,08,25,06,54,10.20
2015,08,25,06,55,10.20
2015,08,25,06,56,10.20
2015,08,25,06,57,10.20
2015,08,25,06,58,10.20
2015,08,25,06,59,10.10
2015,08,25,07,00,10.10
2015,08,25,07,01,10.10
2015,08,25,07,02,10.10
2015,08,25,07,03,10.20
2015,08,25,07,04,10.20
2015,08,25,07,05,10.20
2015,08,25,07,06,10.20
2015,08,25,07,07,10.30
2015,08,25,07,08,10.30
2015,08,25,07,09,10.30
2015,08,25,07,10,10.40
2015,08,25,07,11,10.40
2015,08,25,07,12,10.40
2015,08,25,07,13,10.50
2015,08,25,07,14,10.60
2015,08,25,07,15,10.60
2015,08,25,07,16,10.70
2015,08,25,07,17,10.80
2015,08,25,07,18,11.00
2015,08,25,07,19,11.10
2015,08,25,07,20,11.30
2015,08,25,07,21,11.40
2015,08,25,07,22,11.60
2015,08,25,07,23,11.80
2015,08,25,07,24,12.00
2015,08,25,07,25,12.20
2015,08,25,07,26,12.40
2015,08,25,07,27,12.60
2015,08,25,07,28,12.80
2015,08,25,07,29,12.90
2015,08,25,07,30,13.10
2015,08,25,07,31,13.20
2015,08,25,07,32,13.30
2015,08,25,07,33,13.40
2015,08,25,07,34,13.50
2015,08,25,07,35,13.50
2015,08,25,07,36,13.60
2015,08,25,07,37,13.60
2015,08,25,07,38,13.60
2015,08,25,07,39,13.60
2015,08,25,07,40,13.60
2015,08,25,07,41,13.60
2015,08,25,07,42,13.60
2015,08,25,07,43,13.50
2015,08,25,07,44,13.50
2015,08,25,07,45,13.40
2015,08,25,07,46,13.40
2015,08,25,07,47,13.40
2015,08,25,07,48,13.30
2015,08,25,07,49,13.40
2015,08,25,07,50,13.40
2015,08,25,07,51,13.40
2015,08,25,07,52,13.50
2015,08,25,07,53,13.50
2015,08,25,07,54,13.60
2015,08,25,07,55,13.70
2015,08,25,07,56,13.80
2015,08,25,07,57,13.90
2015,08,25,07,58,13.90
2015,08,25,07,59,14.00
2015,08,25,08,00,14.10
2015,08,25,08,01,14.10
2015,08,25,08,02,14.20
2015,08,25,08,03,14.20
2015,08,25,08,04,14.30
2015,08,25,08,05,14.30
2015,08,25,08,06,14.30
2015,08,25,08,07,14.40
2015,08,25,08,08,14.40
2015,08,25,08,09,14.40
2015,08,25,08,10,14.40
2015,08,25,08,11,14.50
2015,08,25,08,12,14.50
2015,08,25,08,13,14.50
2015,08,25,08,14,14.60
2015,08,25,08,15,14.60
2015,08,25,08,16,14.60
2015,08,25,08,17,14.60
2015,08,25,08,18,14.60
2015,08,25,08,19,14.50
2015,08,25,08,20,14.50
2015,08,25,08,21,14.50
2015,08,25,08,22,14.50
2015,08,25,08,23,14.50
2015,08,25,08,24,14.50
2015,08,25,08,25,14.60
2015,08,25,08,26,14.60
2015,08,25,08,27,14.50
2015,08,25,08,28,14.50
2015,08,25,08,29,14.40
2015,08,25,08,30,14.40
2015,08,25,08,31,14.40
2015,08,25,08,32,14.40
2015,08,25,08,33,14.40
2015,08,25,08,34,14.40
2015,08,25,08,35,14.40
2015,08,25,08,36,14.50
2015,08,25,08,37,14.50
2015,08,25,08,38,14.60
2015,08,25,08,39,14.70
2015,08,25,08,40,14.70
2015,08,25,08,41,14.80
2015,08,25,08,42,14.90
2015,08,25,08,43,15.00
2015,08,25,08,44,15.00
2015,08,25,08,45,15.10
2015,08,25,08,46,15.20
2015,08,25,08,47,15.30
2015,08,25,08,48,15.40
2015,08,25,08,49,15.50
2015,08,25,08,50,15.60
2015,08,25,08,51,15.70
2015,08,25,08,52,15.80
2015,08,25,08,53,15.90
2015,08,25,08,54,16.00
2015,08,25,08,55,16.10
2015,08,25,08,56,16.20
2015,08,25,08,57,16.20
2015,08,25,08,58,16.20
2015,08,25,08,59,16.30
2015,08,25,09,00,16.30
2015,08,25,09,01,16.30
2015,08,25,09,02,16.30
2015,08,25,09,03,16.30
2015,08,25,09,04,16.30
2015,08,25,09,05,16.40
2015,08,25,09,06,16.50
2015,08,25,09,07,16.60
2015,08,25,09,08,16.60
2015,08,25,09,09,16.70
2015,08,25,09,10,16.70
2015,08,25,09,11,16.70
2015,08,25,09,12,16.70
2015,08,25,09,13,16.70
2015,08,25,09,14,16.70
2015,08,25,09,15,16.70
2015,08,25,09,16,16.70
2015,08,25,09,17,16.70
2015,08,25,09,18,16.80
2015,08,25,09,19,16.80
2015,08,25,09,20,16.80
2015,08,25,09,21,16.80
2015,08,25,09,22,16.80
2015,08,25,09,23,16.80
2015,08,25,09,24,16.80
2015,08,25,09,25,16.80
2015,08,25,09,26,16.80
2015,08,25,09,27,16.80
2015,08,25,09,28,16.80
2015,08,25,09,29,16.70
2015,08,25,09,30,16.70
2015,08,25,09,31,16.70
2015,08,25,09,32,16.80
2015,08,25,09,33,16.80
2015,08,25,09,34,16.90
2015,08,25,09,35,16.90
2015,08,25,09,36,17.10
2015,08,25,09,37,17.10
2015,08,25,09,38,17.20
2015,08,25,09,39,17.20
2015,08,25,09,40,17.20
2015,08,25,09,41,17.20
2015,08,25,09,42,17.20
2015,08,25,09,43,17.20
2015,08,25,09,44,17.20
2015,08,25,09,45,17.20
2015,08,25,09,46,17.20
2015,08,25,09,47,17.30
2015,08,25,09,48,17.30
2015,08,25,09,49,17.30
2015,08,25,09,50,17.30
2015,08,25,09,51,17.30
2015,08,25,09,52,17.30
2015,08,25,09,53,17.30
2015,08,25,09,54,17.30
2015,08,25,09,55,17.30
2015,08,25,09,56,17.30
2015,08,25,09,57,17.40
2015,08,25,09,58,17.40
2015,08,25,09,59,17.50
2015,08,25,10,00,17.60
2015,08,25,10,01,17.70
2015,08,25,10,02,17.70
2015,08,25,10,03,17.70
2015,08,25,10,04,17.60
2015,08,25,10,05,17.60
2015,08,25,10,06,17.60
2015,08,25,10,07,17.60
2015,08,25,10,08,17.60
2015,08,25,10,09,17.60
2015,08,25,10,10,17.70
2015,08,25,10,11,17.80
2015,08,25,10,12,17.90
2015,08,25,10,13,18.00
2015,08,25,10,14,18.00
2015,08,25,10,15,18.10
2015,08,25,10,16,18.10
2015,08,25,10,17,18.20
2015,08,25,10,18,18.30
2015,08,25,10,19,18.40
2015,08,25,10,20,18.50
2015,08,25,10,21,18.60
2015,08,25,10,22,18.60
2015,08,25,10,23,18.60
2015,08,25,10,24,18.50
2015,08,25,10,25,18.50
2015,08,25,10,26,18.40
2015,08,25,10,27,18.30
2015,08,25,10,28,18.20
2015,08,25,10,29,18.20
2015,08,25,10,30,18.10
2015,08,25,10,31,18.10
2015,08,25,10,32,18.00
2015,08,25,10,33,18.00
2015,08,25,10,34,18.10
2015,08,25,10,35,18.10
2015,08,25,10,36,18.10
2015,08,25,10,37,18.20
2015,08,25,10,38,18.30
2015,08,25,10,39,18.40
2015,08,25,10,40,18.50
2015,08,25,10,41,18.50
2015,08,25,10,42,18.60
2015,08,25,10,43,18.60
2015,08,25,10,44,18.70
2015,08,25,10,45,18.70
2015,08,25,10,46,18.80
2015,08,25,10,47,18.80
2015,08,25,10,48,18.90
2015,08,25,10,49,18.90
2015,08,25,10,50,18.90
2015,08,25,10,51,19.00
2015,08,25,10,52,19.10
2015,08,25,10,53,19.30
2015,08,25,10,54,19.30
2015,08,25,10,55,19.10
2015,08,25,10,56,18.90
2015,08,25,10,57,18.80
2015,08,25,10,58,18.80
2015,08,25,10,59,18.80
2015,08,25,11,00,18.80
2015,08,25,11,01,18.90
2015,08,25,11,02,18.90
2015,08,25,11,03,18.90
2015,08,25,11,04,19.00
2015,08,25,11,05,19.00
2015,08,25,11,06,19.10
2015,08,25,11,07,19.10
2015,08,25,11,08,19.10
2015,08,25,11,09,19.10
2015,08,25,11,10,19.10
2015,08,25,11,11,19.00
2015,08,25,11,12,19.00
2015,08,25,11,13,18.90
2015,08,25,11,14,18.90
2015,08,25,11,15,18.90
2015,08,25,11,16,19.00
2015,08,25,11,17,19.00
2015,08,25,11,18,19.10
2015,08,25,11,19,19.00
2015,08,25,11,20,18.90
2015,08,25,11,21,18.90
2015,08,25,11,22,18.80
2015,08,25,11,23,18.70
2015,08,25,11,24,18.60
2015,08,25,11,25,18.50
2015,08,25,11,26,18.40
2015,08,25,11,27,18.50
2015,08,25,11,28,18.70
2015,08,25,11,29,18.90
2015,08,25,11,30,19.10
2015,08,25,11,31,19.30
2015,08,25,11,32,19.40
2015,08,25,11,33,19.40
2015,08,25,11,34,19.40
2015,08,25,11,35,19.40
2015,08,25,11,36,19.40
2015,08,25,11,37,19.50
2015,08,25,11,38,19.50
2015,08,25,11,39,19.50
2015,08,25,11,40,19.60
2015,08,25,11,41,19.40
2015,08,25,11,42,19.30
2015,08,25,11,43,19.20
2015,08,25,11,44,19.20
2015,08,25,11,45,19.20
2015,08,25,11,46,19.40
2015,08,25,11,47,19.40
2015,08,25,11,48,19.40
2015,08,25,11,49,19.30
2015,08,25,11,50,19.20
2015,08,25,11,51,19.20
2015,08,25,11,52,19.20
2015,08,25,11,53,19.30
2015,08,25,11,54,19.40
2015,08,25,11,55,19.50
2015,08,25,11,56,19.50
2015,08,25,11,57,19.60
2015,08,25,11,58,19.70
2015,08,25,11,59,19.80
2015,08,25,12,00,19.90
2015,08,25,12,01,19.90
2015,08,25,12,02,19.80
2015,08,25,12,03,19.70
2015,08,25,12,04,19.90
2015,08,25,12,05,20.00
2015,08,25,12,06,20.10
2015,08,25,12,07,20.20
2015,08,25,12,08,20.10
2015,08,25,12,09,20.00
2015,08,25,12,10,20.00
2015,08,25,12,11,20.00
2015,08,25,12,12,20.10
2015,08,25,12,13,20.20
2015,08,25,12,14,20.20
2015,08,25,12,15,20.20
2015,08,25,12,16,20.10
2015,08,25,12,17,20.10
2015,08,25,12,18,20.20
2015,08,25,12,19,20.30
2015,08,25,12,20,20.40
2015,08,25,12,21,20.40
2015,08,25,12,22,20.50
2015,08,25,12,23,20.60
2015,08,25,12,24,20.70
2015,08,25,12,25,20.90
2015,08,25,12,26,21.00
2015,08,25,12,27,20.90
2015,08,25,12,28,20.80
2015,08,25,12,29,20.80
2015,08,25,12,30,20.70
2015,08,25,12,31,20.50
2015,08,25,12,32,20.40
2015,08,25,12,33,20.30
2015,08,25,12,34,20.20
2015,08,25,12,35,20.00
2015,08,25,12,36,19.90
2015,08,25,12,37,20.00
2015,08,25,12,38,20.10
2015,08,25,12,39,20.10
2015,08,25,12,40,20.00
2015,08,25,12,41,19.90
2015,08,25,12,42,19.80
2015,08,25,12,43,19.80
2015,08,25,12,44,19.90
2015,08,25,12,45,19.90
2015,08,25,12,46,19.90
2015,08,25,12,47,19.90
2015,08,25,12,48,19.90
2015,08,25,12,49,20.00
2015,08,25,12,50,20.10
2015,08,25,12,51,20.20
2015,08,25,12,52,20.40
2015,08,25,12,53,20.50
2015,08,25,12,54,20.60
2015,08,25,12,55,20.50
2015,08,25,12,56,20.40
2015,08,25,12,57,20.30
2015,08,25,12,58,20.30
2015,08,25,12,59,20.40
2015,08,25,13,00,20.50
2015,08,25,13,01,20.40
2015,08,25,13,02,20.30
2015,08,25,13,03,20.30
2015,08,25,13,04,20.10
2015,08,25,13,05,20.00
2015,08,25,13,06,19.90
2015,08,25,13,07,19.80
2015,08,25,13,08,19.70
2015,08,25,13,09,19.70
2015,08,25,13,10,19.80
2015,08,25,13,11,19.90
2015,08,25,13,12,20.10
2015,08,25,13,13,20.20
2015,08,25,13,14,20.10
2015,08,25,13,15,20.10
2015,08,25,13,16,20.30
2015,08,25,13,17,20.50
2015,08,25,13,18,20.60
2015,08,25,13,19,20.60
2015,08,25,13,20,20.50
2015,08,25,13,21,20.50
2015,08,25,13,22,20.50
2015,08,25,13,23,20.40
2015,08,25,13,24,20.40
2015,08,25,13,25,20.30
2015,08,25,13,26,20.20
2015,08,25,13,27,20.20
2015,08,25,13,28,20.20
2015,08,25,13,29,20.20
2015,08,25,13,30,20.20
2015,08,25,13,31,20.20
2015,08,25,13,32,20.10
2015,08,25,13,33,20.10
2015,08,25,13,34,20.10
2015,08,25,13,35,20.10
2015,08,25,13,36,20.00
2015,08,25,13,37,20.00
2015,08,25,13,38,20.00
2015,08,25,13,39,19.90
2015,08,25,13,40,20.00
2015,08,25,13,41,20.20
2015,08,25,13,42,20.30
2015,08,25,13,43,20.40
2015,08,25,13,44,20.50
2015,08,25,13,45,20.40
2015,08,25,13,46,20.40
2015,08,25,13,47,20.30
2015,08,25,13,48,20.20
2015,08,25,13,49,20.30
2015,08,25,13,50,20.40
2015,08,25,13,51,20.40
2015,08,25,13,52,20.40
2015,08,25,13,53,20.40
2015,08,25,13,54,20.30
2015,08,25,13,55,20.30
2015,08,25,13,56,20.40
2015,08,25,13,57,20.60
2015,08,25,13,58,20.70
2015,08,25,13,59,20.70
2015,08,25,14,00,20.80
2015,08,25,14,01,20.70
2015,08,25,14,02,20.60
2015,08,25,14,03,20.60
2015,08,25,14,04,20.50
2015,08,25,14,05,20.40
2015,08,25,14,06,20.30
2015,08,25,14,07,20.30
2015,08,25,14,08,20.20
2015,08,25,14,09,20.00
2015,08,25,14,10,19.90
2015,08,25,14,11,19.90
2015,08,25,14,12,19.80
2015,08,25,14,13,19.70
2015,08,25,14,14,19.70
2015,08,25,14,15,19.70
2015,08,25,14,16,19.70
2015,08,25,14,17,19.80
2015,08,25,14,18,19.90
2015,08,25,14,19,19.80
2015,08,25,14,20,19.90
2015,08,25,14,21,20.00
2015,08,25,14,22,20.00
2015,08,25,14,23,20.20
2015,08,25,14,24,20.20
2015,08,25,14,25,20.20
2015,08,25,14,26,20.20
2015,08,25,14,27,20.20
2015,08,25,14,28,20.20
2015,08,25,14,29,20.20
2015,08,25,14,30,20.20
2015,08,25,14,31,20.10
2015,08,25,14,32,20.10
2015,08,25,14,33,20.10
2015,08,25,14,34,20.20
2015,08,25,14,35,20.20
2015,08,25,14,36,20.30
2015,08,25,14,37,20.40
2015,08,25,14,38,20.50
2015,08,25,14,39,20.50
2015,08,25,14,40,20.50
2015,08,25,14,41,20.50
2015,08,25,14,42,20.60
2015,08,25,14,43,20.70
2015,08,25,14,44,20.70
2015,08,25,14,45,20.80
2015,08,25,14,46,20.80
2015,08,25,14,47,21.00
2015,08,25,14,48,21.10
2015,08,25,14,49,21.20
2015,08,25,14,50,21.30
2015,08,25,14,51,21.40
2015,08,25,14,52,21.50
2015,08,25,14,53,21.50
2015,08,25,14,54,21.40
2015,08,25,14,55,21.30
2015,08,25,14,56,21.20
2015,08,25,14,57,21.20
2015,08,25,14,58,21.20
2015,08,25,14,59,21.20
2015,08,25,15,00,21.30
2015,08,25,15,01,21.40
2015,08,25,15,02,21.50
2015,08,25,15,03,21.50
2015,08,25,15,04,21.40
2015,08,25,15,05,21.40
2015,08,25,15,06,21.30
2015,08,25,15,07,21.30
2015,08,25,15,08,21.30
2015,08,25,15,09,21.30
2015,08,25,15,10,21.30
2015,08,25,15,11,21.40
2015,08,25,15,12,21.50
2015,08,25,15,13,21.70
2015,08,25,15,14,21.80
2015,08,25,15,15,21.80
2015,08,25,15,16,21.90
2015,08,25,15,17,21.90
2015,08,25,15,18,22.00
2015,08,25,15,19,22.10
2015,08,25,15,20,22.10
2015,08,25,15,21,22.10
2015,08,25,15,22,22.20
2015,08,25,15,23,22.20
2015,08,25,15,24,22.20
2015,08,25,15,25,22.10
2015,08,25,15,26,22.20
2015,08,25,15,27,22.20
2015,08,25,15,28,22.20
2015,08,25,15,29,22.20
2015,08,25,15,30,22.10
2015,08,25,15,31,22.00
2015,08,25,15,32,21.90
2015,08,25,15,33,21.90
2015,08,25,15,34,21.90
2015,08,25,15,35,22.00
2015,08,25,15,36,22.00
2015,08,25,15,37,21.90
2015,08,25,15,38,21.80
2015,08,25,15,39,21.80
2015,08,25,15,40,21.70
2015,08,25,15,41,21.70
2015,08,25,15,42,21.80
2015,08,25,15,43,21.80
2015,08,25,15,44,21.80
2015,08,25,15,45,21.80
2015,08,25,15,46,21.80
2015,08,25,15,47,21.80
2015,08,25,15,48,21.80
2015,08,25,15,49,21.90
2015,08,25,15,50,22.00
2015,08,25,15,51,22.20
2015,08,25,15,52,22.30
2015,08,25,15,53,22.30
2015,08,25,15,54,22.40
2015,08,25,15,55,22.40
2015,08,25,15,56,22.40
2015,08,25,15,57,22.50
2015,08,25,15,58,22.60
2015,08,25,15,59,22.70
2015,08,25,16,00,22.80
2015,08,25,16,01,22.80
2015,08,25,16,02,22.80
2015,08,25,16,03,22.70
2015,08,25,16,04,22.70
2015,08,25,16,05,22.70
2015,08,25,16,06,22.70
2015,08,25,16,07,22.70
2015,08,25,16,08,22.70
2015,08,25,16,09,22.70
2015,08,25,16,10,22.70
2015,08,25,16,11,22.80
2015,08,25,16,12,22.80
2015,08,25,16,13,22.90
2015,08,25,16,14,23.00
2015,08,25,16,15,23.00
2015,08,25,16,16,23.00
2015,08,25,16,17,22.90
2015,08,25,16,18,22.80
2015,08,25,16,19,22.70
2015,08,25,16,20,22.60
2015,08,25,16,21,22.60
2015,08,25,16,22,22.70
2015,08,25,16,23,22.70
2015,08,25,16,24,22.80
2015,08,25,16,25,22.80
2015,08,25,16,26,22.80
2015,08,25,16,27,22.90
2015,08,25,16,28,22.90
2015,08,25,16,29,22.90
2015,08,25,16,30,22.90
2015,08,25,16,31,22.80
2015,08,25,16,32,22.80
2015,08,25,16,33,22.70
2015,08,25,16,34,22.70
2015,08,25,16,35,22.70
2015,08,25,16,36,22.70
2015,08,25,16,37,22.70
2015,08,25,16,38,22.60
2015,08,25,16,39,22.60
2015,08,25,16,40,22.60
2015,08,25,16,41,22.60
2015,08,25,16,42,22.70
2015,08,25,16,43,22.70
2015,08,25,16,44,22.60
2015,08,25,16,45,22.60
2015,08,25,16,46,22.60
2015,08,25,16,47,22.60
2015,08,25,16,48,22.60
2015,08,25,16,49,22.70
2015,08,25,16,50,22.70
2015,08,25,16,51,22.80
2015,08,25,16,52,22.80
2015,08,25,16,53,22.90
2015,08,25,16,54,23.00
2015,08,25,16,55,23.00
2015,08,25,16,56,23.10
2015,08,25,16,57,23.10
2015,08,25,16,58,23.20
2015,08,25,16,59,23.30
2015,08,25,17,00,23.30
2015,08,25,17,01,23.30
2015,08,25,17,02,23.20
2015,08,25,17,03,23.10
2015,08,25,17,04,23.10
2015,08,25,17,05,23.10
2015,08,25,17,06,23.10
2015,08,25,17,07,23.10
2015,08,25,17,08,23.10
2015,08,25,17,09,23.10
2015,08,25,17,10,23.10
2015,08,25,17,11,23.20
2015,08,25,17,12,23.30
2015,08,25,17,13,23.30
2015,08,25,17,14,23.30
2015,08,25,17,15,23.30
2015,08,25,17,16,23.30
2015,08,25,17,17,23.30
2015,08,25,17,18,23.30
2015,08,25,17,19,23.30
2015,08,25,17,20,23.30